TimeEST,TemperatureF,Dew PointF,Humidity,Sea Level PressureIn,VisibilityMPH,Wind Direction,Wind SpeedMPH,Gust SpeedMPH,PrecipitationIn,Events,Conditions,WindDirDegrees,DateUTC
12:13 AM,30.2,26.6,86,30.01,10.0,Calm,Calm,-,N/A,,Mostly Cloudy,0,2013-02-03 05:13:00
12:34 AM,30.2,26.6,86,30.01,10.0,Calm,Calm,-,N/A,,Overcast,0,2013-02-03 05:34:00
12:55 AM,30.2,26.6,86,30.00,10.0,Calm,Calm,-,N/A,,Overcast,0,2013-02-03 05:55:00
1:17 AM,30.2,26.6,86,30.00,10.0,Calm,Calm,-,N/A,,Overcast,0,2013-02-03 06:17:00
1:38 AM,30.2,26.6,86,29.99,10.0,Calm,Calm,-,N/A,,Overcast,0,2013-02-03 06:38:00
1:59 AM,28.4,26.6,93,29.98,10.0,Calm,Calm,-,N/A,,Scattered Clouds,0,2013-02-03 06:59:00
2:21 AM,28.4,26.6,93,29.97,10.0,Calm,Calm,-,N/A,,Clear,0,2013-02-03 07:21:00
2:42 AM,28.4,26.6,93,29.97,10.0,Calm,Calm,-,N/A,,Scattered Clouds,0,2013-02-03 07:42:00
3:03 AM,28.4,26.6,93,29.96,10.0,Calm,Calm,-,N/A,,Scattered Clouds,0,2013-02-03 08:03:00
3:25 AM,28.4,26.6,93,29.96,10.0,Calm,Calm,-,N/A,,Clear,0,2013-02-03 08:25:00
3:46 AM,28.4,26.6,93,29.95,10.0,Calm,Calm,-,N/A,,Clear,0,2013-02-03 08:46:00
4:07 AM,26.6,24.8,93,29.94,10.0,Calm,Calm,-,N/A,,Scattered Clouds,0,2013-02-03 09:07:00
4:29 AM,26.6,24.8,93,29.94,4.0,Calm,Calm,-,N/A,,Scattered Clouds,0,2013-02-03 09:29:00
4:50 AM,26.6,24.8,93,29.94,4.0,Calm,Calm,-,N/A,,Scattered Clouds,0,2013-02-03 09:50:00
5:11 AM,26.6,24.8,93,29.94,5.0,Calm,Calm,-,N/A,,Clear,0,2013-02-03 10:11:00
5:33 AM,26.6,24.8,93,29.94,10.0,Calm,Calm,-,N/A,,Clear,0,2013-02-03 10:33:00
5:54 AM,26.6,24.8,93,29.93,10.0,Calm,Calm,-,N/A,,Scattered Clouds,0,2013-02-03 10:54:00
6:15 AM,26.6,23.0,86,29.93,10.0,Calm,Calm,-,N/A,,Clear,0,2013-02-03 11:15:00
6:37 AM,26.6,24.8,93,29.94,10.0,Calm,Calm,-,N/A,,Scattered Clouds,0,2013-02-03 11:37:00
6:58 AM,24.8,23.0,93,29.94,10.0,Calm,Calm,-,N/A,,Scattered Clouds,0,2013-02-03 11:58:00
7:19 AM,24.8,23.0,93,29.95,10.0,Calm,Calm,-,N/A,,Mostly Cloudy,0,2013-02-03 12:19:00
7:41 AM,24.8,23.0,93,29.96,10.0,Calm,Calm,-,N/A,,Scattered Clouds,0,2013-02-03 12:41:00
8:02 AM,26.6,23.0,86,29.96,10.0,Calm,Calm,-,N/A,,Scattered Clouds,0,2013-02-03 13:02:00
8:23 AM,28.4,26.6,93,29.96,10.0,Calm,Calm,-,N/A,,Mostly Cloudy,0,2013-02-03 13:23:00
9:06 AM,30.2,28.4,93,29.95,10.0,Calm,Calm,-,N/A,,Mostly Cloudy,0,2013-02-03 14:06:00
9:27 AM,30.2,28.4,93,29.95,10.0,Calm,Calm,-,N/A,,Overcast,0,2013-02-03 14:27:00
9:48 AM,32.0,28.4,87,29.94,10.0,ENE,4.6,-,N/A,,Overcast,70,2013-02-03 14:48:00
10:10 AM,32.0,26.6,80,29.94,10.0,East,4.6,-,N/A,,Overcast,90,2013-02-03 15:10:00
10:31 AM,32.0,26.6,80,29.94,10.0,East,3.5,-,N/A,,Overcast,80,2013-02-03 15:31:00
10:52 AM,32.0,24.8,75,29.94,10.0,Calm,Calm,-,N/A,,Overcast,0,2013-02-03 15:52:00
11:13 AM,32.0,26.6,80,29.93,10.0,Calm,Calm,-,N/A,,Overcast,0,2013-02-03 16:13:00
11:35 AM,32.0,26.6,80,29.93,7.0,Calm,Calm,-,N/A,,Overcast,0,2013-02-03 16:35:00
11:56 AM,32.0,26.6,80,29.92,10.0,Calm,Calm,-,N/A,,Overcast,0,2013-02-03 16:56:00
12:17 PM,32.0,26.6,80,29.91,10.0,Calm,Calm,-,N/A,,Overcast,0,2013-02-03 17:17:00
12:38 PM,33.8,26.6,75,29.89,10.0,SW,3.5,-,N/A,,Overcast,230,2013-02-03 17:38:00
1:00 PM,32.0,24.8,75,29.88,10.0,North,3.5,-,N/A,,Overcast,350,2013-02-03 18:00:00
1:21 PM,33.8,26.6,75,29.88,10.0,WSW,4.6,-,N/A,,Overcast,240,2013-02-03 18:21:00
1:42 PM,32.0,28.4,87,29.88,1.2,WSW,5.8,-,N/A,,Overcast,240,2013-02-03 18:42:00
2:04 PM,32.0,30.2,93,29.86,1.5,SW,3.5,-,N/A,,Overcast,220,2013-02-03 19:04:00
2:25 PM,32.0,30.2,93,29.86,5.0,WSW,3.5,-,N/A,,Overcast,250,2013-02-03 19:25:00
2:46 PM,32.0,30.2,93,29.86,10.0,Calm,Calm,-,N/A,,Overcast,0,2013-02-03 19:46:00
3:07 PM,32.0,28.4,87,29.86,10.0,West,5.8,-,N/A,,Overcast,270,2013-02-03 20:07:00
3:29 PM,33.8,28.4,81,29.86,10.0,WNW,4.6,-,N/A,,Overcast,290,2013-02-03 20:29:00
3:50 PM,33.8,28.4,81,29.87,10.0,West,3.5,-,N/A,,Overcast,270,2013-02-03 20:50:00
4:11 PM,33.8,28.4,81,29.87,10.0,WSW,4.6,-,N/A,,Overcast,250,2013-02-03 21:11:00
4:32 PM,33.8,28.4,81,29.87,10.0,WSW,3.5,-,N/A,,Overcast,240,2013-02-03 21:32:00
4:33 PM,33.8,28.4,81,29.87,10.0,WSW,3.5,-,N/A,,Overcast,240,2013-02-03 21:33:00
4:54 PM,33.8,28.4,81,29.86,10.0,SW,3.5,-,N/A,,Overcast,220,2013-02-03 21:54:00
5:15 PM,33.8,28.4,81,29.86,10.0,West,3.5,-,N/A,,Scattered Clouds,260,2013-02-03 22:15:00
5:36 PM,32.0,28.4,87,29.86,10.0,Calm,Calm,-,N/A,,Clear,0,2013-02-03 22:36:00
5:58 PM,32.0,28.4,87,29.86,10.0,Calm,Calm,-,N/A,,Scattered Clouds,0,2013-02-03 22:58:00
6:19 PM,32.0,28.4,87,29.87,10.0,Calm,Calm,-,N/A,,Mostly Cloudy,0,2013-02-03 23:19:00
6:40 PM,30.2,28.4,93,29.87,10.0,Calm,Calm,-,N/A,,Overcast,0,2013-02-03 23:40:00
7:01 PM,32.0,28.4,87,29.88,10.0,Calm,Calm,-,N/A,,Overcast,0,2013-02-04 00:01:00
7:23 PM,32.0,28.4,87,29.88,10.0,Calm,Calm,-,N/A,,Overcast,0,2013-02-04 00:23:00
7:44 PM,30.2,28.4,93,29.88,10.0,Calm,Calm,-,N/A,,Overcast,0,2013-02-04 00:44:00
8:05 PM,32.0,28.4,87,29.89,10.0,Calm,Calm,-,N/A,,Overcast,0,2013-02-04 01:05:00
8:27 PM,32.0,28.4,87,29.89,10.0,Calm,Calm,-,N/A,,Overcast,0,2013-02-04 01:27:00
8:48 PM,32.0,28.4,87,29.90,10.0,Calm,Calm,-,N/A,,Overcast,0,2013-02-04 01:48:00
9:09 PM,32.0,28.4,87,29.91,10.0,Calm,Calm,-,N/A,,Overcast,0,2013-02-04 02:09:00
9:30 PM,32.0,28.4,87,29.91,10.0,Calm,Calm,-,N/A,,Overcast,0,2013-02-04 02:30:00
9:52 PM,32.0,28.4,87,29.92,10.0,SW,3.5,-,N/A,,Overcast,230,2013-02-04 02:52:00
10:13 PM,32.0,28.4,87,29.92,10.0,Calm,Calm,-,N/A,,Overcast,0,2013-02-04 03:13:00
10:34 PM,32.0,28.4,87,29.92,10.0,WSW,3.5,-,N/A,,Overcast,240,2013-02-04 03:34:00
10:56 PM,32.0,28.4,87,29.93,10.0,WNW,4.6,-,N/A,,Overcast,290,2013-02-04 03:56:00
11:17 PM,32.0,26.6,80,29.94,10.0,West,9.2,-,N/A,,Overcast,280,2013-02-04 04:17:00
11:38 PM,32.0,23.0,69,29.95,10.0,WNW,9.2,19.6,N/A,,Mostly Cloudy,300,2013-02-04 04:38:00